[[{"header":{"parameterUnit":"m.s-1","parameterCategory":1,"la1":30.2991,"la2":30.254,"lo1":-89.0895,"lo2":-89.0444,"dy":0.0017,"dx":0.0017,"nx":28,"ny":28,"refTime":"2024-10-16T21:00:00:Z","depth":0,"parameterNumber":2,"parameterNumberName":"U-component_of_WINDS"},"data":[0,0,0,0,0,0,0,0,0,0,0,0,0,0,0,0,0,0,0,0,0,0,0,0,0,0,0,0,0,0,0,0,0,0,0,0,0,0,0,0,0,0,0,0,0,0,0,0,0,0,0,0,0,0,0,0,0,0,-2.6165,-2.6165,0,-2.6204,-2.6205,-2.6205,-2.6122,-2.612,-2.6117,-2.6115,-2.6155,-2.6158,-2.6162,0,0,0,0,0,0,0,0,0,0,0,0,0,-2.6017,-2.602,-2.6165,-2.6165,-2.6166,-2.6204,-2.6205,-2.6205,-2.6123,-2.612,-2.6116,-2.6113,-2.6154,-2.6158,-2.6162,0,0,0,0,0,0,0,0,0,0,0,0,0,-2.6071,-2.6021,-2.6165,-2.6129,-2.6127,-2.6204,-2.6205,-2.6205,-2.6124,-2.612,-2.6116,-2.6112,-2.6152,-2.6158,-2.6163,-2.6277,0,0,-2.6179,-2.6182,0,0,0,0,0,0,0,0,-2.6068,-2.6077,-2.6134,-2.6132,-2.6129,-2.6154,-2.6167,-2.6229,-2.6125,-2.6125,-2.6115,-2.611,-2.6158,-2.6163,-2.6179,-2.6279,-2.628,-2.618,-2.6183,-2.6185,-2.6187,0,0,0,0,0,0,0,-2.6065,-2.6075,-2.618,-2.6135,-2.6132,-2.6111,-2.6114,-2.6179,-2.6164,-2.6124,-2.6119,-2.6124,-2.6156,-2.6174,-2.6179,-2.6281,-2.618,-2.6184,-2.6188,-2.619,-2.6474,-2.6478,0,0,0,0,0,0,-2.6065,-2.6072,-2.6179,-2.6182,-2.6088,-2.6117,-2.6121,-2.615,-2.6163,-2.6161,-2.6128,-2.612,-2.6167,-2.6173,-2.618,-2.6314,-2.6185,-2.619,-2.6193,-2.647,-2.6475,-2.648,0,0,0,0,0,0,-2.6063,-2.6076,-2.6178,-2.6125,-2.6137,-2.6124,-2.6158,-2.6153,-2.6171,-2.6165,-2.6162,-2.6149,-2.6164,-2.6173,-2.6253,-2.6314,-2.6193,-2.6198,-2.6465,-2.6471,-2.6477,-2.6582,0,0,0,0,0,0,-2.6059,-2.6075,-2.6119,-2.6127,-2.614,-2.6251,-2.6162,-2.6157,-2.6181,-2.6171,-2.6184,-2.6183,-2.6161,-2.6245,-2.6258,-2.6319,-2.6202,-2.6459,-2.6468,-2.6475,-2.6573,-2.6591,-2.6607,0,0,0,0,0,-2.6054,-2.6147,-2.6122,-2.6135,-2.6194,-2.6254,-2.6261,-2.6235,-2.6186,-2.6229,-2.6225,-2.6182,-2.6305,-2.6254,-2.6268,-2.6332,-2.6455,-2.6465,-2.6475,-2.6566,-2.6588,-2.6606,0,0,0,0,0,0,-2.6147,-2.6148,-2.6119,-2.6218,-2.6237,-2.624,-2.6294,-2.626,-2.6293,-2.6283,-2.6248,-2.6252,-2.6339,-2.6343,-2.6286,-2.6441,-2.6372,-2.6385,-2.6436,-2.6457,-2.6474,-2.6471,-2.6206,0,0,0,0,0,-2.6179,-2.6228,-2.6226,-2.6313,-2.6324,-2.6308,-2.6333,-2.6311,-2.6329,-2.6336,-2.6338,-2.6357,-2.6399,-2.6428,-2.6467,-2.6573,-2.6574,-2.6623,-2.664,-2.6654,-2.6666,-2.6721,-2.6743,-2.6512,-2.6512,-2.6511,0,0,-2.6246,-2.6252,-2.6286,-2.6332,-2.6344,-2.6395,-2.6315,-2.6373,-2.641,-2.6345,-2.6421,-2.6422,-2.6441,-2.6534,-2.6575,-2.654,-2.6729,-2.6666,-2.6677,-2.6682,-2.6733,-2.6755,-2.6775,-2.6518,-2.6517,-2.6516,0,0,-2.6394,-2.6404,-2.6478,-2.6491,-2.6509,-2.6497,-2.6515,-2.6524,-2.6522,-2.6597,-2.6549,-2.6593,-2.6667,-2.6682,-2.6699,-2.6851,-2.6813,-2.6865,-2.6953,-2.7008,-2.7026,-2.7042,-2.7096,-2.7116,-2.6876,-2.6877,-2.6877,0,-2.6475,-2.6551,-2.652,-2.6581,-2.6602,-2.6545,-2.6618,-2.6632,-2.6663,-2.6679,-2.6639,-2.673,-2.6739,-2.6834,-2.6871,-2.6887,-2.6906,-2.6864,-2.7026,-2.7041,-2.7056,-2.7107,-2.7127,-2.6883,-2.6882,-2.6881,-2.6881,0,-2.6649,-2.6702,-2.6759,-2.679,-2.6817,-2.6885,-2.6863,-2.6895,-2.6869,-2.6862,-2.6938,-2.6946,-2.6985,-2.7006,-2.6982,-2.7098,-2.7076,-2.7031,-2.6961,-2.7085,-2.7132,-2.7151,-2.6892,-2.6889,-2.6888,-2.6886,0,0,-2.686,-2.6871,-2.6892,-2.6905,-2.692,-2.696,-2.7024,-2.7062,-2.7089,-2.7112,-2.7164,-2.7227,-2.7186,-2.7206,-2.7183,-2.723,-2.7349,-2.718,-2.718,-2.7211,-2.7477,-2.7511,-2.7534,-2.7323,-2.7327,-2.733,-2.7475,0,-2.7006,-2.7116,-2.7089,-2.7198,-2.7246,-2.7191,-2.7246,-2.7262,-2.7255,-2.7295,-2.7287,-2.7333,-2.7275,-2.7286,-2.7331,-2.7326,-2.7402,-2.7315,-2.7372,-2.7374,-2.737,-2.7559,-2.7595,-2.7732,-2.7494,-2.7497,-2.7499,0,-2.7193,-2.7222,-2.7336,-2.7342,-2.7361,-2.7411,-2.7443,-2.7481,-2.7497,-2.7489,-2.751,-2.7477,-2.7539,-2.7467,-2.7552,-2.7493,-2.7514,-2.7515,-2.752,-2.7525,-2.7445,-2.7569,-2.7775,-2.7796,-2.7528,-2.7526,-2.7523,0,-2.7335,-2.7402,-2.7479,-2.7491,-2.75,-2.7537,-2.7542,-2.7554,-2.7578,-2.7605,-2.762,-2.7655,-2.7674,-2.7701,-2.7678,-2.7627,-2.7766,-2.7692,-2.7761,-2.7762,-2.7794,-2.7792,-2.8007,-2.7807,-2.7807,-2.7806,-2.7806,0,-2.7502,-2.7574,-2.7543,-2.759,-2.7668,-2.7636,-2.7714,-2.7713,-2.7723,-2.7768,-2.7722,-2.7766,-2.7732,-2.7773,-2.7755,-2.7828,-2.7837,-2.7832,-2.7826,-2.7836,-2.7837,-2.7851,-2.7841,-2.7812,-2.781,-2.7809,-2.7808,0,-2.7675,-2.7657,-2.7737,-2.7738,-2.774,-2.7798,-2.7799,-2.7842,-2.7831,-2.789,-2.7901,-2.7885,-2.793,-2.791,-2.7957,-2.7945,-2.8038,-2.802,-2.8033,-2.8029,-2.8099,-2.8093,-2.833,-2.8359,-2.8141,-2.8143,-2.8144,0,-2.7784,-2.7837,-2.7844,-2.7871,-2.788,-2.7924,-2.7948,-2.7917,-2.7944,-2.7965,-2.8005,-2.8046,-2.8078,-2.8152,-2.8144,-2.818,-2.8162,-2.8243,-2.8167,-2.8175,-2.8163,-2.8161,-2.8166,-2.8258,-2.8261,-2.8263,-2.8264,0,-2.7978,-2.7966,-2.8002,-2.8036,-2.8065,-2.809,-2.811,-2.8135,-2.8105,-2.8137,-2.8182,-2.8207,-2.8254,-2.8295,-2.8326,-2.833,-2.8293,-2.8288,-2.8306,-2.8317,-2.8323,-2.8321,-2.8075,-2.8283,-2.8281,-2.828,-2.8279,-2.8278,-2.8122,-2.8167,-2.8178,-2.822,-2.8232,-2.8252,-2.8292,-2.8287,-2.8324,-2.836,-2.8339,-2.8392,-2.8404,-2.8442,-2.8451,-2.8492,-2.846,-2.8486,-2.8493,-2.85,-2.8509,-2.8316,-2.8497,-2.8497,-2.8496,-2.8496,-2.8495,0,-2.8314,-2.8318,-2.8357,-2.8387,-2.8419,-2.838,-2.84,-2.843,-2.8477,-2.8492,-2.8523,-2.8574,-2.8613,-2.8608,-2.8644,-2.8677,-2.866,-2.8687,-2.8685,-2.8686,-2.8536,-2.8517,-2.87,-2.87,-2.87,-2.87,-2.87,-2.87,-2.8418,-2.8492,-2.8481,-2.8559,-2.8562,-2.8614,-2.8629,-2.8647,-2.8658,-2.8717,-2.8749,-2.8745,-2.8752,-2.8787,-2.8821,-2.8818,-2.8833,-2.8867,-2.8858,-2.8717,-2.8697,-2.8678,-2.866,-2.887,-2.8871,-2.9005,-2.9007,-2.9008]},{"header":{"parameterUnit":"m.s-1","parameterCategory":1,"la1":30.2991,"la2":30.254,"lo1":-89.0895,"lo2":-89.0444,"dy":0.0017,"dx":0.0017,"nx":28,"ny":28,"refTime":"2024-10-16T21:00:00:Z","depth":0,"parameterNumber":3,"parameterNumberName":"V-component_of_WINDS"},"data":[0,0,0,0,0,0,0,0,0,0,0,0,0,0,0,0,0,0,0,0,0,0,0,0,0,0,0,0,0,0,0,0,0,0,0,0,0,0,0,0,0,0,0,0,0,0,0,0,0,0,0,0,0,0,0,0,0,0,-7.9425,-7.9426,0,-7.9524,-7.9525,-7.9526,-7.9391,-7.9386,-7.9381,-7.9377,-7.9472,-7.9479,-7.9486,0,0,0,0,0,0,0,0,0,0,0,0,0,-7.9111,-7.9117,-7.9425,-7.9426,-7.9427,-7.9524,-7.9525,-7.9526,-7.9392,-7.9386,-7.938,-7.9375,-7.947,-7.9478,-7.9486,0,0,0,0,0,0,0,0,0,0,0,0,0,-7.9232,-7.9119,-7.9424,-7.9372,-7.9368,-7.9524,-7.9525,-7.9527,-7.9393,-7.9386,-7.9378,-7.9372,-7.9467,-7.9477,-7.9488,-7.9698,0,0,-7.952,-7.9524,0,0,0,0,0,0,0,0,-7.9226,-7.9244,-7.9378,-7.9376,-7.9372,-7.9438,-7.9449,-7.9584,-7.9395,-7.9383,-7.9377,-7.9368,-7.9466,-7.9476,-7.9511,-7.9702,-7.9706,-7.9521,-7.9527,-7.9532,-7.9535,0,0,0,0,0,0,0,-7.9217,-7.9239,-7.9464,-7.938,-7.9376,-7.9341,-7.935,-7.9474,-7.9464,-7.9384,-7.9374,-7.9388,-7.9463,-7.9501,-7.9512,-7.9708,-7.9521,-7.953,-7.9536,-7.9541,-8.0074,-8.0081,0,0,0,0,0,0,-7.9216,-7.9233,-7.946,-7.9467,-7.928,-7.9352,-7.9362,-7.9424,-7.9462,-7.9461,-7.9394,-7.9381,-7.9486,-7.95,-7.9515,-7.9762,-7.9532,-7.9542,-7.9548,-8.0066,-8.0076,-8.0084,0,0,0,0,0,0,-7.921,-7.9238,-7.9456,-7.9347,-7.9372,-7.9365,-7.9435,-7.943,-7.9467,-7.947,-7.9467,-7.9435,-7.9481,-7.95,-7.9653,-7.9763,-7.9546,-7.9556,-8.0057,-8.0069,-8.008,-8.0259,0,0,0,0,0,0,-7.9202,-7.9236,-7.9318,-7.935,-7.9379,-7.9596,-7.9442,-7.9437,-7.9487,-7.9471,-7.9508,-7.9507,-7.9477,-7.9638,-7.9664,-7.9774,-7.9564,-8.0047,-8.0062,-8.0076,-8.0243,-8.0276,-8.0303,0,0,0,0,0,-7.9191,-7.9363,-7.9323,-7.9351,-7.9481,-7.9603,-7.9619,-7.9583,-7.9496,-7.9577,-7.9578,-7.9506,-7.9747,-7.9655,-7.9683,-7.9798,-8.004,-8.0058,-8.0075,-8.023,-8.0269,-8.0302,0,0,0,0,0,0,-7.9342,-7.9367,-7.9322,-7.9511,-7.9556,-7.958,-7.968,-7.9625,-7.9695,-7.9677,-7.9626,-7.9636,-7.98,-7.9814,-7.9711,-8.0002,-7.9879,-7.9903,-7.9987,-8.0024,-8.0054,-8.0047,-7.9573,0,0,0,0,0,-7.9398,-7.9497,-7.9512,-7.9677,-7.9702,-7.9688,-7.974,-7.9708,-7.9752,-7.977,-7.9782,-7.9826,-7.9911,-7.9968,-8.0047,-8.0245,-8.0249,-8.0337,-8.0367,-8.0392,-8.0413,-8.0516,-8.0555,-8.0142,-8.0142,-8.0142,0,0,-7.9513,-7.9539,-7.9604,-7.9708,-7.9739,-7.9841,-7.9705,-7.9818,-7.9892,-7.9786,-7.9932,-7.9943,-7.9988,-8.0164,-8.0242,-8.0181,-8.0528,-8.0414,-8.0434,-8.0441,-8.0539,-8.0578,-8.0612,-8.0154,-8.0152,-8.015,0,0,-7.9775,-7.9805,-7.9946,-7.998,-8.003,-8.0019,-8.0053,-8.0086,-8.009,-8.0236,-8.0158,-8.0244,-8.0393,-8.0428,-8.0465,-8.074,-8.0675,-8.0767,-8.0923,-8.1024,-8.1057,-8.1085,-8.1182,-8.1218,-8.0788,-8.0788,-8.0788,0,-7.9911,-8.0064,-8.0024,-8.0143,-8.019,-8.0101,-8.0241,-8.0275,-8.0348,-8.0381,-8.0312,-8.0496,-8.052,-8.0703,-8.077,-8.0803,-8.0838,-8.0762,-8.1056,-8.1084,-8.111,-8.1202,-8.1239,-8.0799,-8.0798,-8.0797,-8.0796,0,-8.0228,-8.0335,-8.0442,-8.0517,-8.0575,-8.0705,-8.0682,-8.0746,-8.0709,-8.0705,-8.0853,-8.0879,-8.0961,-8.1002,-8.0966,-8.1179,-8.114,-8.1064,-8.0939,-8.1161,-8.1246,-8.1281,-8.0814,-8.081,-8.0807,-8.0805,0,0,-8.0588,-8.064,-8.0679,-8.0712,-8.076,-8.084,-8.0964,-8.1046,-8.1102,-8.1154,-8.1256,-8.1383,-8.1314,-8.1356,-8.1323,-8.1413,-8.1627,-8.1326,-8.1326,-8.138,-8.1862,-8.1918,-8.196,-8.1585,-8.1592,-8.1597,-8.1858,0,-8.0849,-8.1067,-8.1034,-8.1243,-8.1339,-8.1255,-8.1363,-8.1403,-8.1402,-8.1482,-8.148,-8.1571,-8.1473,-8.1498,-8.1583,-8.1584,-8.1723,-8.1564,-8.1677,-8.1681,-8.1668,-8.2005,-8.2065,-8.231,-8.1891,-8.1897,-8.1901,0,-8.1183,-8.1251,-8.147,-8.1502,-8.1541,-8.1639,-8.1711,-8.179,-8.1832,-8.1825,-8.1873,-8.1824,-8.1945,-8.1819,-8.1984,-8.1877,-8.192,-8.1927,-8.1936,-8.1944,-8.1804,-8.2021,-8.2387,-8.2424,-8.1953,-8.1949,-8.1945,0,-8.1423,-8.1568,-8.1717,-8.1748,-8.179,-8.186,-8.188,-8.1916,-8.1967,-8.2029,-8.2061,-8.2137,-8.2177,-8.2235,-8.2206,-8.2118,-8.2376,-8.2248,-8.2372,-8.2373,-8.243,-8.2427,-8.2808,-8.246,-8.2459,-8.2459,-8.2458,0,-8.1718,-8.1855,-8.1826,-8.1918,-8.2068,-8.2028,-8.2176,-8.2186,-8.2218,-8.2309,-8.224,-8.2325,-8.2282,-8.2364,-8.2342,-8.2482,-8.25,-8.2497,-8.2489,-8.2503,-8.2503,-8.253,-8.2512,-8.2468,-8.2466,-8.2464,-8.2463,0,-8.2011,-8.1997,-8.2154,-8.2182,-8.2191,-8.2301,-8.2323,-8.2407,-8.2401,-8.2516,-8.2541,-8.2531,-8.2624,-8.2601,-8.2702,-8.2686,-8.2862,-8.2833,-8.2849,-8.2841,-8.2966,-8.2955,-8.3377,-8.343,-8.3049,-8.3053,-8.3056,0,-8.22,-8.2303,-8.2342,-8.2399,-8.2425,-8.2517,-8.257,-8.2533,-8.259,-8.2646,-8.2724,-8.2811,-8.2879,-8.3031,-8.3031,-8.3107,-8.3079,-8.3222,-8.309,-8.31,-8.308,-8.3074,-8.3083,-8.3248,-8.3252,-8.3256,-8.3259,0,-8.2536,-8.2524,-8.2603,-8.2681,-8.2746,-8.2805,-8.2856,-8.2906,-8.2873,-8.294,-8.3035,-8.3088,-8.3192,-8.3278,-8.3349,-8.3366,-8.3307,-8.33,-8.3333,-8.3347,-8.3352,-8.335,-8.2919,-8.3291,-8.3287,-8.3285,-8.3283,-8.3282,-8.2782,-8.287,-8.2911,-8.3001,-8.3037,-8.3087,-8.3168,-8.3172,-8.3252,-8.3335,-8.3308,-8.3416,-8.3454,-8.3542,-8.3569,-8.3651,-8.3597,-8.3645,-8.3656,-8.3668,-8.3684,-8.334,-8.3664,-8.3663,-8.3662,-8.3661,-8.3661,0,-8.3113,-8.3136,-8.322,-8.3295,-8.3366,-8.3306,-8.336,-8.3422,-8.352,-8.3561,-8.363,-8.3738,-8.3822,-8.3829,-8.3907,-8.3972,-8.3946,-8.3993,-8.3988,-8.3992,-8.3728,-8.3692,-8.4012,-8.4012,-8.4012,-8.4012,-8.4012,-8.4012,-8.3294,-8.344,-8.3433,-8.3594,-8.3614,-8.3722,-8.3758,-8.3803,-8.3836,-8.3961,-8.4031,-8.4036,-8.4063,-8.4142,-8.4215,-8.4215,-8.4246,-8.4304,-8.4293,-8.4046,-8.4011,-8.3978,-8.3943,-8.4311,-8.4312,-8.455,-8.4552,-8.4554]}]]